TimePDT,TemperatureF,Dew PointF,Humidity,Sea Level PressureIn,VisibilityMPH,Wind Direction,Wind SpeedMPH,Gust SpeedMPH,PrecipitationIn,Events,Conditions,WindDirDegrees,DateUTC
12:04 AM,41.0,41.0,100,30.14,1.8,South,8.1,-,N/A,,Overcast,190,2013-04-05 07:04:00
12:11 AM,41.0,41.0,100,30.14,1.0,South,9.2,-,N/A,,Overcast,180,2013-04-05 07:11:00
12:25 AM,41.0,41.0,100,30.14,0.5,South,6.9,16.1,N/A,Fog,Fog,180,2013-04-05 07:25:00
12:38 AM,41.0,41.0,100,30.14,0.8,South,8.1,-,N/A,,Overcast,190,2013-04-05 07:38:00
12:49 AM,41.0,41.0,100,30.14,0.2,South,9.2,-,N/A,Fog,Fog,170,2013-04-05 07:49:00
12:52 AM,41.0,41.0,100,30.08,0.2,South,10.4,-,N/A,Fog,Fog,170,2013-04-05 07:52:00
1:38 AM,41.0,41.0,100,30.13,0.5,SSE,9.2,17.3,N/A,Fog,Fog,160,2013-04-05 08:38:00
1:52 AM,41.0,39.9,96,30.07,0.8,South,8.1,-,N/A,,Mist,170,2013-04-05 08:52:00
2:29 AM,41.0,41.0,100,30.14,0.2,South,9.2,-,N/A,Fog,Fog,170,2013-04-05 09:29:00
2:52 AM,41.0,39.9,96,30.07,0.2,SSE,10.4,-,N/A,Fog,Fog,150,2013-04-05 09:52:00
3:10 AM,39.2,39.2,100,30.13,0.5,South,8.1,-,N/A,Fog,Fog,180,2013-04-05 10:10:00
3:35 AM,39.2,39.2,100,30.13,1.5,SW,6.9,-,N/A,,Overcast,220,2013-04-05 10:35:00
3:38 AM,39.2,39.2,100,30.13,3.0,Variable,5.8,-,N/A,,Overcast,0,2013-04-05 10:38:00
3:42 AM,39.2,39.2,100,30.13,1.8,SSE,4.6,-,N/A,,Overcast,160,2013-04-05 10:42:00
3:49 AM,39.2,39.2,100,30.13,1.0,South,6.9,-,N/A,,Overcast,180,2013-04-05 10:49:00
3:52 AM,39.9,39.0,97,30.08,1.8,South,8.1,-,N/A,,Overcast,190,2013-04-05 10:52:00
3:59 AM,39.2,39.2,100,30.13,10.0,SSW,9.2,-,N/A,,Overcast,200,2013-04-05 10:59:00
4:06 AM,39.2,39.2,100,30.13,2.5,South,6.9,-,N/A,,Mostly Cloudy,180,2013-04-05 11:06:00
4:09 AM,39.2,39.2,100,30.14,1.2,SSW,6.9,-,N/A,,Overcast,200,2013-04-05 11:09:00
4:20 AM,39.2,39.2,100,30.14,2.5,SSW,4.6,-,N/A,,Mostly Cloudy,210,2013-04-05 11:20:00
4:27 AM,39.2,39.2,100,30.14,5.0,South,5.8,-,N/A,,Overcast,180,2013-04-05 11:27:00
4:34 AM,39.2,39.2,100,30.14,1.8,South,8.1,-,N/A,,Overcast,190,2013-04-05 11:34:00
4:42 AM,39.2,39.2,100,30.14,1.0,South,5.8,-,N/A,,Overcast,190,2013-04-05 11:42:00
4:47 AM,39.2,39.2,100,30.14,2.5,SSW,4.6,-,N/A,,Overcast,200,2013-04-05 11:47:00
4:52 AM,39.0,39.0,100,30.09,2.0,South,3.5,-,N/A,,Overcast,180,2013-04-05 11:52:00
4:59 AM,39.2,39.2,100,30.14,1.5,South,5.8,-,N/A,,Overcast,180,2013-04-05 11:59:00
5:03 AM,39.2,39.2,100,30.14,3.0,South,5.8,-,N/A,,Overcast,180,2013-04-05 12:03:00
5:18 AM,39.2,37.4,93,30.14,1.5,SSE,5.8,-,N/A,,Mostly Cloudy,160,2013-04-05 12:18:00
5:20 AM,39.2,37.4,93,30.14,0.8,South,5.8,-,N/A,,Mostly Cloudy,170,2013-04-05 12:20:00
5:52 AM,39.0,39.0,100,30.09,1.0,SSE,4.6,-,N/A,,Mist,150,2013-04-05 12:52:00
6:08 AM,39.2,37.4,93,30.13,0.5,SSE,3.5,-,N/A,Fog,Fog,150,2013-04-05 13:08:00
6:22 AM,37.4,37.4,100,30.13,0.2,Variable,3.5,-,N/A,Fog,Fog,0,2013-04-05 13:22:00
6:52 AM,37.0,37.0,100,30.09,0.8,ESE,3.5,-,N/A,,Mist,110,2013-04-05 13:52:00
6:58 AM,37.4,37.4,100,30.13,1.5,ESE,3.5,-,N/A,,Mostly Cloudy,110,2013-04-05 13:58:00
7:01 AM,37.4,35.6,93,30.13,3.0,ESE,3.5,-,N/A,,Scattered Clouds,110,2013-04-05 14:01:00
7:52 AM,39.0,37.9,96,30.09,10.0,Calm,Calm,-,N/A,,Clear,0,2013-04-05 14:52:00
8:52 AM,41.0,37.0,86,30.10,10.0,SSE,5.8,-,N/A,,Clear,160,2013-04-05 15:52:00
9:52 AM,43.0,37.0,80,30.11,10.0,Variable,6.9,-,N/A,,Partly Cloudy,0,2013-04-05 16:52:00
10:23 AM,44.6,35.6,71,30.16,10.0,SSE,8.1,-,N/A,,Mostly Cloudy,160,2013-04-05 17:23:00
10:52 AM,44.1,34.0,68,30.10,10.0,South,10.4,-,N/A,,Mostly Cloudy,190,2013-04-05 17:52:00
10:59 AM,44.6,33.8,66,30.17,10.0,South,10.4,-,N/A,,Scattered Clouds,190,2013-04-05 17:59:00
11:52 AM,46.0,36.0,68,30.11,10.0,South,10.4,17.3,N/A,,Partly Cloudy,170,2013-04-05 18:52:00
12:52 PM,46.9,34.0,61,30.11,10.0,SSW,8.1,17.3,N/A,,Mostly Cloudy,200,2013-04-05 19:52:00
1:52 PM,48.0,34.0,58,30.09,10.0,South,13.8,19.6,N/A,,Clear,190,2013-04-05 20:52:00
2:52 PM,46.9,35.1,63,30.10,10.0,South,11.5,-,N/A,,Mostly Cloudy,180,2013-04-05 21:52:00
3:52 PM,46.0,37.0,71,30.09,10.0,South,10.4,-,N/A,,Mostly Cloudy,180,2013-04-05 22:52:00
4:05 PM,46.4,35.6,66,30.16,10.0,South,9.2,-,N/A,,Scattered Clouds,190,2013-04-05 23:05:00
4:52 PM,46.0,37.0,71,30.08,10.0,South,10.4,-,N/A,,Clear,180,2013-04-05 23:52:00
5:52 PM,45.0,37.9,76,30.10,10.0,South,8.1,-,N/A,,Mostly Cloudy,190,2013-04-06 00:52:00
6:05 PM,44.6,39.2,81,30.15,10.0,SSW,5.8,-,N/A,,Mostly Cloudy,200,2013-04-06 01:05:00
6:39 PM,42.8,37.4,81,30.15,10.0,SSW,5.8,-,N/A,,Overcast,200,2013-04-06 01:39:00
6:52 PM,43.0,37.9,82,30.11,10.0,South,6.9,-,N/A,,Overcast,180,2013-04-06 01:52:00
7:12 PM,42.8,39.2,87,30.15,10.0,SSW,8.1,-,N/A,,Overcast,200,2013-04-06 02:12:00
7:20 PM,42.8,39.2,87,30.15,10.0,SSW,5.8,-,N/A,,Overcast,200,2013-04-06 02:20:00
7:34 PM,42.8,39.2,87,30.15,10.0,SSW,4.6,-,N/A,,Overcast,210,2013-04-06 02:34:00
7:52 PM,42.1,39.9,92,30.10,10.0,South,6.9,-,N/A,,Overcast,170,2013-04-06 02:52:00
8:21 PM,41.0,39.2,93,30.15,10.0,South,5.8,-,N/A,,Overcast,180,2013-04-06 03:21:00
8:52 PM,41.0,39.9,96,30.12,2.5,South,5.8,-,N/A,,Overcast,170,2013-04-06 03:52:00
8:56 PM,41.0,39.2,93,30.16,1.2,SSE,4.6,-,N/A,,Overcast,150,2013-04-06 03:56:00
9:06 PM,41.0,39.2,93,30.16,2.0,Variable,3.5,-,N/A,,Overcast,0,2013-04-06 04:06:00
9:14 PM,41.0,39.2,93,30.16,7.0,SSE,6.9,-,N/A,,Overcast,150,2013-04-06 04:14:00
9:52 PM,41.0,39.9,96,30.12,1.2,SSW,4.6,-,N/A,,Overcast,200,2013-04-06 04:52:00
10:02 PM,41.0,39.2,93,30.18,0.5,South,6.9,-,N/A,Fog,Fog,180,2013-04-06 05:02:00
10:16 PM,41.0,39.2,93,30.17,1.0,SSE,6.9,-,N/A,,Mist,160,2013-04-06 05:16:00
10:23 PM,41.0,39.2,93,30.17,0.8,SSE,6.9,-,N/A,,Mist,160,2013-04-06 05:23:00
10:36 PM,41.0,39.2,93,30.17,1.0,SSE,5.8,-,N/A,,Mist,160,2013-04-06 05:36:00
10:52 PM,39.9,39.9,100,30.12,1.0,SSE,5.8,-,N/A,,Mist,160,2013-04-06 05:52:00
10:57 PM,39.2,39.2,100,30.17,2.0,SSE,5.8,-,N/A,,Overcast,150,2013-04-06 05:57:00
11:08 PM,39.2,39.2,100,30.17,1.8,Variable,4.6,-,N/A,,Overcast,0,2013-04-06 06:08:00
11:11 PM,39.2,39.2,100,30.17,3.0,SE,5.8,-,N/A,,Overcast,140,2013-04-06 06:11:00
11:15 PM,39.2,39.2,100,30.17,1.8,SSE,4.6,-,N/A,,Overcast,150,2013-04-06 06:15:00
11:30 PM,39.2,39.2,100,30.17,1.2,SSE,4.6,-,N/A,,Overcast,160,2013-04-06 06:30:00
11:35 PM,41.0,39.2,93,30.17,0.5,South,5.8,-,N/A,Fog,Fog,170,2013-04-06 06:35:00
11:45 PM,39.2,39.2,100,30.17,0.5,South,5.8,-,N/A,Fog,Fog,170,2013-04-06 06:45:00
11:52 PM,39.9,39.0,97,30.11,0.8,South,6.9,-,N/A,,Overcast,180,2013-04-06 06:52:00
11:55 PM,39.2,39.2,100,30.17,1.8,South,4.6,-,N/A,,Overcast,180,2013-04-06 06:55:00
11:57 PM,39.2,39.2,100,30.18,3.0,South,5.8,-,N/A,,Overcast,190,2013-04-06 06:57:00